{"data":{"norad_id":55047,"epoch":"2026-09-21T21:34:55.186176Z","epoch_age_seconds":43964,"freshness":"FRESH","line1":"1 55047U 23001AQ  26264.89924984  .00006219  00000+0  22147-3 0  9996","line2":"2 55047  97.2974 323.9636 0007742  70.0825 290.1249 15.29268438207087","mean_motion":15.29268438,"eccentricity":0.0007742,"inclination_deg":97.2974,"raan_deg":323.9636,"arg_perigee_deg":70.0825,"mean_anomaly_deg":290.1249,"bstar":0.00022147,"rev_number":20708,"period_min":94.162670478131,"perigee_km":472.6899378157,"apogee_km":483.30597718389,"semimajor_km":6856.1349574998,"source":"CELESTRAK","updated_at":"2026-09-22T09:00:25.267071Z"}}